Regional Weather Roundup
Issued by NWS

Home | Current Version | Previous Version | Text Only | Print | Product List | Glossary Off
Versions: 1 2 3 4 5 6 7 8 9 10 11 12 13 14 15 16 17 18 19 20 21 22 23 24 25 26 27 28 29 30 31 32 33 34 35 36 37 38 39 40 41 42 43 44 45 46 47 48 49 50

000
ASUS43 KMPX 011110
RWRMN
WEATHER ROUNDUP FOR MINNESOTA
NATIONAL WEATHER SERVICE TWIN CITIES/CHANHASSEN MN
500 AM CST SUN MAR 01 2015


NOTE: "FAIR" INDICATES FEW OR NO CLOUDS BELOW 12,000 FEET WITH NO
SIGNIFICANT WEATHER AND/OR OBSTRUCTIONS TO VISIBILITY. N/A MEANS
CURRENT SKY AND/OR WEATHER CONDITIONS ARE NOT AVAILABLE.

MNZ060>063-068>070-011200-
   Twin Cities Metro

CITY           SKY/WX    TMP DP  RH WIND       PRES   REMARKS
TWIN CITIES    CLOUDY    16  10  77 SW14G20   30.24S WCI   2
ST PAUL        CLOUDY    15  11  83 SE5       30.26S WCI   8
CRYSTAL        CLOUDY    17  11  77 SW10      30.22S WCI   5
BLAINE         CLOUDY    18  14  86 SW10      30.22S WCI   6
LAKEVILLE      CLEAR     12  10  92 SW6       30.23S WCI   3
EDEN PRAIRIE   CLOUDY    15  10  80 SW10      30.23S WCI   2
SOUTH ST PAUL  MOCLDY    15  11  83 S3        30.24F
LAKE ELMO      FLURRIES  16  12  86 S9        30.24F WCI   4
$$
MNZ001>005-007-008-013>017-022>024-027-028-011200-
   Northwest Minnesota

CITY           SKY/WX    TMP DP  RH WIND       PRES   REMARKS
BEMIDJI        CLEAR      1  -2  85 SW6       30.11S WCI -10
HALLOCK        CLEAR     -8 -13  77 S6        30.10S WCI -21
ROSEAU         CLEAR     -2  -8  78 SW10      30.07F WCI -19
WARROAD        CLEAR     -2  -6  84 SW8       30.06F WCI -17
THIEF RVR FALL CLEAR     -2  -9  71 SW8       30.12S WCI -17
CROOKSTON      CLEAR     -6  -9  84 S8        30.17S WCI -21
FOSSTON        PTCLDY    -9 -15  77 S8        30.14S WCI -26
DETROIT LAKES  PTCLDY     1   0  92 SW6       30.16F WCI -10
MOORHEAD       PTCLDY     1   0  92 SW6       30.21S WCI -10
PARK RAPIDS    FAIR      -3  -8  79 W5        30.13S WCI -13
MAHNOMEN       FAIR      -8 -12  83 S9        30.15S WCI -25
$$
MNZ006-009>011-018-025>026-011200-
   North Central Minnesota

CITY           SKY/WX    TMP DP  RH WIND       PRES   REMARKS
BAUDETTE       CLEAR     -3  -7  82 S5        30.06S WCI -13
FLAG ISLAND    CLEAR     -4  -8  84 S5        30.04S WCI -15
INTL FALLS     PTCLDY     7   2  80 W9        30.06S WCI  -7
WASKISH        CLEAR      3   0  85 CALM      30.09F
BIG FORK       PTCLDY    10   7  85 W6        30.09R WCI   1
LONGVILLE      CLEAR      7   1  78 W10       30.13S WCI  -8
GRAND RAPIDS   CLOUDY    16  10  79 SW6       30.08S WCI   7
CRANE LAKE     LGT SNOW  12  10  92 SW3       30.09R
ORR            FLURRIES  12   7  79 CALM      30.04R
COOK           LGT SNOW  12   9  85 SW7       30.07S WCI   2
WALKER         FAIR       3  -1  83 W6        30.13R WCI  -8
$$
MNZ012-019>021-037-011200-
   Northeast Minnesota

CITY           SKY/WX    TMP DP  RH WIND       PRES   REMARKS
DULUTH         LGT SNOW  11   6  81 SW12      30.11F WCI  -3
ELY            CLOUDY    10   7  85 SW9       30.06F WCI  -2
HIBBING        LGT SNOW  13   8  81 SW6       30.08F WCI   4
EVELETH        FLURRIES  12   9  85 SW9       30.09F WCI   0
DULUTH HARBOR  CLOUDY    16   9  73 SW9       30.20S WCI   4
SILVER BAY     LGT SNOW  12   7  79 CALM      30.11F
GRAND MARAIS     N/A     15   6  67 W7        30.15F WCI   5
G MARAIS ARPRT FLURRIES   3   0  85 S3        30.04F
$$
MNZ029>031-032-039>041-046>048-054>057-064-011200-
   West Central Minnesota

CITY           SKY/WX    TMP DP  RH WIND       PRES   REMARKS
FERGUS FALLS   PTCLDY    -2  -8  78 W6        30.26  WCI -14
MORRIS         CLEAR      3   0  85 W7        30.22S WCI  -9
ALEXANDRIA     CLEAR      5   0  79 W13       30.18S WCI -12
ELBOW LAKE     FAIR       0  -3  85 W7        30.21S WCI -13
WADENA         CLEAR      1  -2  85 W7        30.16S WCI -11
APPLETON       CLEAR      3  -2  78 W7        30.25S WCI  -9
BENSON         CLEAR      7   1  78 NW9       30.23R WCI  -7
ORTONVILLE     CLEAR      7   0  72 NW5       30.24S WCI  -2
MADISON        CLEAR      7   0  72 W7        30.26S WCI  -5
WILLMAR        FAIR      10   3  72 NW13      30.23S WCI  -5
$$
MNZ033>034-036-042>043-049>051-058-059-011200-
   Central Minnesota

CITY           SKY/WX    TMP DP  RH WIND       PRES   REMARKS
ST CLOUD       CLOUDY    15  11  83 S7        30.19R WCI   5
SAUK CENTRE    FAIR       8   3  78 W6        30.19R WCI  -2
PAYNESVILLE    PTCLDY     6   4  91 SW8       30.21R WCI  -6
PINE RIVER     MOCLDY     7   3  85 W6        30.18R WCI  -3
BRAINERD       CLOUDY    14  11  87 NW12      30.15R FOG     WCI   0
STAPLES        PTCLDY     0  -4  85 W6        30.16S WCI -12
LONG PRAIRIE   FAIR       9   1  72 W7        30.17S WCI  -3
LITTLE FALLS   CLOUDY    18  10  73 W8        30.17R WCI   7
LITCHFIELD     PTCLDY    12  12 100 W5        30.21S WCI   4
BUFFALO        CLOUDY    16  10  79 SW7       30.22S WCI   6
MAPLE LAKE     CLOUDY    17  14  88 SW6       30.21S WCI   8
$$
MNZ037-044-045-052-053-011200-
   East Central Minnesota

CITY           SKY/WX    TMP DP  RH WIND       PRES   REMARKS
PRINCETON      CLOUDY    16  12  86 SW5       30.19S WCI   9
MORA           MOCLDY    14  10  85 CALM      30.19F
CAMBRIDGE      MOCLDY    18   9  68 SW6       30.19S WCI   9
RUSH CITY      CLOUDY    14  10  85 S5        30.20F WCI   6
MOOSE LAKE     CLOUDY    12   9  85 CALM      30.15S
HINCKLEY       FLURRIES  14  10  85 S7        30.18S WCI   4
CLOQUET        FLURRIES  10   7  85 SW7       30.13F WCI   0
MCGREGOR       CLOUDY    14  10  85 S7        30.14F WCI   4
$$
MNZ071>073-080-081-089-090-097-098-011200-
   Southwest Minnesota

CITY           SKY/WX    TMP DP  RH WIND       PRES   REMARKS
MONTEVIDEO     PTCLDY     9   1  72 NW5       30.26R WCI   0
GRANITE FALLS  CLEAR      5   1  81 W7        30.27R WCI  -7
CANBY          CLEAR      7   1  78 W8        30.26R WCI  -6
MARSHALL       CLEAR      9   0  66 W10       30.26R WCI  -6
REDWOOD FALLS  CLEAR     11   4  73 W10       30.25R WCI  -3
OLIVIA         CLEAR      9   3  78 W8        30.24R WCI  -4
PIPESTONE      PTCLDY     5   1  85 CALM      30.22R
WINDOM         PTCLDY    12   9  85 W7        30.24R WCI   2
WORTHINGTON    MOCLDY    21   7  53 W10       30.25R WCI  10
JACKSON        PTCLDY    12   9  85 W9        30.24R WCI   0
TRACY          CLEAR     13   9  85 W6        30.24S WCI   4
SLAYTON        PTCLDY     8   5  87 CALM      30.23S
$$
MNZ065>067-074>077-082>085-091>093-011200-
   South Central Minnesota

CITY           SKY/WX    TMP DP  RH WIND       PRES   REMARKS
MANKATO        CLOUDY    16  10  79 SW13      30.25R WCI   2
NEW ULM        PTCLDY    16  10  79 W10       30.24R WCI   3
ST JAMES       CLOUDY    18  12  79 SW10      30.26R WCI   6
FAIRMONT       MOCLDY    12   9  85 W10       30.24R WCI  -1
GLENCOE        CLOUDY    16  13  88 SW7       30.22S WCI   6
FARIBAULT      CLEAR     14  10  85 S8        30.24S WCI   3
OWATONNA       CLEAR     12  10  92 S12G20    30.24S WCI  -2
WASECA         PTCLDY    12   9  85 SW12      30.26S WCI  -2
ALBERT LEA     PTCLDY    12  12 100 S7        30.25S FOG     WCI   2
$$
MNZ078>079-086>088-094>096-011200-
   Southeast Minnesota

CITY           SKY/WX    TMP DP  RH WIND       PRES   REMARKS
ROCHESTER      PTCLDY    11   7  84 SW16      30.25F FOG     WCI  -6
RED WING       PTCLDY    12   9  85 CALM      30.27F
STANTON        CLEAR     15  11  84 SW9       30.23F WCI   3
DODGE CENTER   LGT SNOW  12  10  92 SW18      30.22F WCI  -5
WINONA         CLOUDY    14  10  85 SE3       30.33F
AUSTIN         CLOUDY    12  10  92 S8        30.27S WCI   1
PRESTON        MOCLDY     9   7  89 SW10      30.27F WCI  -5
$$
ABBREVIATIONS USED IN REMARKS
   TC - TEMPERATURES IN CELSIUS
  WCI - WIND CHILL INDEX
   HX - HEAT INDEX
  VSB - VISIBILITY
$$


USA.gov is the U.S. government's official web portal to all federal, state and local government web resources and services.